Wind_Speed
41 40 39 39 39 39 40 41 41 42 43 44 45 46 46 46 48 49 48 47 47 47 47 48 48 49 50 51 53 55 57 59 61 62 63 63 63 62 61 60 59 59
40 39 39 39 39 40 41 41 42 43 43 45 46 47 47 48 49 50 49 48 48 47 48 48 49 50 51 53 55 57 59 61 63 64 64 63 62 61 60 58 59 59
39 39 39 39 40 40 41 42 43 44 44 45 46 47 48 50 51 51 49 49 48 48 49 50 50 52 53 55 57 60 62 64 65 64 64 63 61 60 58 58 59 60
38 38 39 39 40 41 42 43 43 44 45 46 47 48 49 51 52 50 49 48 48 49 49 50 52 53 55 58 60 62 64 65 65 64 64 62 60 59 58 58 59 60
38 38 39 39 40 41 42 43 43 44 45 46 47 48 50 51 51 49 48 48 48 49 50 51 53 55 57 60 62 64 65 65 64 63 63 62 60 59 59 59 60 61
38 38 39 39 40 41 42 42 43 44 46 47 47 48 50 51 49 48 47 47 48 49 50 53 55 57 59 61 63 63 63 63 62 61 61 61 60 60 60 61 61 62
38 38 39 40 40 41 41 42 44 45 46 46 47 48 50 49 47 46 46 46 48 49 51 54 56 58 60 62 62 62 60 59 59 59 60 60 60 60 61 62 63 63
38 38 39 40 40 41 42 43 44 45 46 46 47 48 48 46 45 45 45 47 49 51 53 55 57 59 61 62 61 59 58 57 57 58 59 59 59 59 60 62 63 64
38 38 39 40 40 41 42 44 45 45 45 46 47 48 46 44 44 45 46 49 51 52 54 56 58 60 61 61 59 57 56 56 56 57 59 59 59 58 59 61 63 65
38 39 39 40 41 42 43 44 45 44 45 46 47 46 43 43 44 46 48 50 52 53 55 56 58 60 60 59 58 56 56 56 56 58 59 60 60 59 60 62 64 65
38 39 40 40 41 42 43 44 44 44 45 46 46 43 41 43 46 48 50 51 52 54 55 56 58 59 59 58 57 56 56 56 57 59 60 60 61 60 61 63 64 66
39 39 40 40 41 42 43 43 43 43 45 46 44 41 41 44 47 49 50 51 53 54 54 56 57 57 57 57 56 55 55 56 58 59 60 61 61 61 62 63 64 66
39 39 39 40 41 42 42 43 42 43 44 44 40 39 42 45 47 48 50 51 52 53 54 55 55 55 56 55 55 55 55 56 58 59 60 61 61 61 62 63 64 65
39 39 39 40 40 41 42 42 42 43 43 40 38 40 43 45 46 47 49 50 51 52 52 53 53 53 54 54 54 55 56 57 59 60 61 62 61 61 61 63 64 63
39 39 39 40 40 40 41 41 41 42 40 36 37 40 42 44 45 46 48 49 50 51 51 51 51 52 52 53 54 55 56 58 60 62 63 63 63 62 62 63 62 60
39 39 39 39 40 40 40 40 41 40 36 34 36 39 41 42 44 45 47 48 48 49 49 50 50 51 52 52 53 55 56 59 61 62 63 63 62 61 61 62 59 55
40 40 39 39 39 38 39 40 39 36 33 33 36 37 39 41 42 44 45 46 47 48 48 49 50 51 52 52 53 55 57 59 61 62 62 61 61 61 61 60 55 51
40 40 39 38 38 38 38 39 36 32 31 32 34 36 38 40 41 43 44 45 46 47 48 49 49 50 51 52 53 55 57 60 61 61 61 60 61 61 61 58 54 50
40 39 39 38 37 37 38 36 33 30 30 31 33 35 37 39 40 42 43 45 46 47 48 49 49 50 51 51 53 55 58 60 61 61 61 60 61 61 60 57 54 49
40 39 38 37 37 36 36 33 30 29 30 30 32 34 37 39 40 41 43 45 46 48 48 49 49 50 51 51 52 55 57 59 60 60 60 60 61 62 60 57 54 49
40 39 37 36 36 35 33 30 28 29 29 29 31 34 36 38 40 41 43 45 46 48 49 49 49 50 51 51 51 53 56 58 59 60 61 61 63 63 60 57 54 49
39 37 36 35 34 33 30 28 28 29 28 29 31 33 36 38 40 42 44 45 46 48 49 50 50 51 52 51 51 52 54 57 58 60 61 63 65 66 63 59 55 50
38 36 34 34 33 31 28 27 28 28 28 28 31 33 36 38 40 42 44 46 47 49 50 51 51 52 53 52 52 53 54 56 58 60 61 64 66 66 64 61 57 51
36 34 33 33 31 28 27 28 28 27 27 28 30 33 36 38 40 42 44 46 48 49 51 52 52 53 54 54 53 53 55 57 59 60 61 63 65 65 63 61 57 51
35 33 32 31 29 27 27 28 27 26 26 28 31 33 35 37 40 42 45 46 48 49 50 52 53 54 55 55 54 54 56 57 59 60 60 62 65 65 63 60 57 51
33 32 31 29 27 27 28 27 26 25 25 28 31 33 35 37 40 42 45 47 48 49 50 51 53 54 55 55 54 54 55 56 58 59 59 61 63 64 62 59 56 51
Wind_Direction
270 273 276 280 283 285 287 289 291 294 296 297 298 300 301 302 304 307 307 306 305 305 304 304 305 306 306 307 307 307 307 307 306 304 303 302 302 301 300 300 298 297
271 274 277 280 283 285 287 290 292 294 296 297 299 300 301 303 306 307 307 306 305 304 305 305 306 307 307 308 308 308 308 307 305 304 303 303 302 301 300 299 297 295
272 275 277 280 282 285 288 290 292 294 296 298 299 300 301 304 307 307 306 305 305 305 306 307 308 308 309 309 309 308 308 306 305 305 305 304 303 301 300 298 296 295
272 274 277 280 282 285 288 290 293 295 296 298 299 300 302 305 306 306 305 305 306 307 308 309 309 310 310 310 309 309 308 307 307 307 306 305 303 300 298 296 295 294
271 273 277 279 282 285 288 290 293 295 296 298 299 301 303 305 306 305 305 306 308 309 310 310 310 310 310 310 309 308 307 307 308 308 306 304 302 300 298 296 295 294
270 273 276 279 282 285 288 290 293 294 296 297 299 301 303 304 304 304 306 308 309 310 310 309 309 309 309 308 307 307 307 308 309 308 305 304 302 300 299 297 296 294
270 272 275 279 282 284 287 290 292 294 295 297 299 302 303 303 303 305 308 309 309 309 309 309 309 309 309 307 307 308 308 309 309 307 305 303 302 300 299 297 296 295
270 272 275 279 281 283 286 289 291 293 295 297 300 302 302 302 304 307 308 308 309 309 309 310 310 310 308 307 308 309 310 310 309 307 305 302 301 300 299 297 296 296
270 272 275 278 280 282 285 288 290 292 294 297 300 301 302 303 305 307 308 308 309 310 310 311 311 309 308 308 309 310 310 310 309 306 304 302 301 300 299 298 297 297
270 272 274 276 279 281 284 287 290 292 294 298 300 301 302 304 306 307 309 310 310 311 311 312 310 309 308 309 310 311 311 311 309 306 304 303 303 303 303 301 300 300
269 270 272 275 278 281 283 286 289 291 295 298 299 300 302 305 306 308 310 311 311 312 312 311 310 309 309 310 311 312 312 311 309 306 305 305 306 306 305 303 302 301
268 269 271 274 277 280 283 286 289 291 295 297 298 300 303 306 308 310 311 312 312 313 312 311 310 309 311 312 313 314 313 311 309 307 306 306 307 306 305 303 302 301
267 268 271 274 277 280 283 285 288 292 295 297 298 302 305 307 310 312 313 313 313 313 312 311 311 312 313 314 314 314 313 311 310 308 308 308 308 308 306 305 304 303
266 267 270 273 276 279 283 285 289 293 295 297 299 304 307 310 313 314 315 315 314 314 313 313 314 315 315 316 315 314 314 313 312 311 311 311 311 311 310 309 307 306
264 266 269 272 275 279 282 286 290 293 295 297 301 306 310 313 316 317 316 316 316 316 316 316 317 317 317 316 316 315 315 315 314 314 314 315 315 314 313 312 310 309
263 265 268 271 275 279 282 287 291 293 294 298 303 308 313 316 319 319 319 319 319 319 319 319 319 319 318 318 317 316 316 316 315 315 315 315 315 315 315 314 313 312
262 264 267 271 275 279 283 287 291 291 293 299 305 311 316 320 322 322 322 323 323 322 322 321 321 320 319 319 318 317 316 315 315 315 316 316 317 317 317 315 314 313
260 263 267 271 275 279 283 287 288 288 292 300 306 313 319 323 326 327 327 328 327 326 325 323 322 321 321 320 318 317 316 315 315 316 317 318 318 319 319 317 316 314
259 263 266 270 274 279 284 286 284 286 293 300 308 316 322 327 330 332 332 332 330 329 327 325 323 322 322 320 318 316 315 315 316 318 319 320 320 321 320 319 317 314
259 262 266 270 275 279 283 282 280 285 294 302 311 318 324 330 334 335 336 335 333 332 329 327 325 324 323 320 317 315 315 316 318 320 321 320 320 322 321 320 318 316
258 262 266 270 275 279 279 276 278 286 295 304 312 320 327 333 336 338 338 337 335 333 331 329 327 325 323 320 317 315 315 318 320 322 323 322 321 322 323 321 320 317
259 263 266 270 275 276 274 272 278 287 296 305 314 321 328 334 338 340 339 338 336 334 332 331 328 325 323 321 318 317 317 320 323 324 326 324 323 323 324 322 321 318
259 262 266 270 273 271 268 271 279 287 297 306 315 322 329 334 338 340 340 339 337 334 333 331 328 325 324 323 321 320 320 322 325 326 326 325 323 323 323 322 320 319
258 261 266 269 269 265 265 271 279 288 298 307 315 322 329 333 337 340 339 338 336 333 331 329 327 325 325 325 324 323 323 325 326 326 326 325 324 323 323 322 320 319
256 261 265 266 264 261 264 271 279 288 299 308 315 322 328 332 336 339 339 337 334 332 329 326 326 326 327 328 328 327 327 327 327 327 327 327 325 324 324 323 321 319
256 261 263 261 258 259 264 272 280 290 300 309 316 323 327 331 335 338 338 337 334 331 328 326 326 327 329 330 331 330 329 328 328 329 330 329 328 326 325 324 321 318
Height
3018 3018 3017 3017 3016 3015 3013 3012 3011 3010 3009 3007 3006 3005 3003 3002 3000 2997 2995 2992 2989 2987 2984 2982 2979 2977 2974 2971 2968 2965 2963 2960 2957 2954 2950 2946 2942 2938 2934 2931 2928 2924
3013 3013 3012 3011 3010 3010 3008 3007 3006 3005 3004 3002 3000 2999 2997 2995 2993 2990 2988 2985 2983 2981 2978 2975 2972 2970 2967 2964 2961 2958 2955 2952 2949 2945 2941 2937 2933 2928 2925 2922 2918 2915
3008 3007 3007 3006 3005 3005 3004 3003 3002 3000 2999 2997 2995 2993 2991 2989 2986 2984 2981 2978 2976 2974 2971 2968 2965 2963 2960 2957 2954 2950 2947 2944 2940 2936 2931 2927 2923 2919 2916 2913 2909 2906
3002 3001 3001 3001 3000 3000 2999 2998 2997 2995 2994 2992 2990 2988 2985 2983 2980 2977 2975 2972 2969 2967 2964 2961 2958 2956 2953 2949 2946 2942 2939 2935 2931 2926 2921 2918 2914 2910 2907 2904 2901 2898
2996 2996 2996 2996 2995 2995 2994 2993 2992 2990 2989 2987 2984 2982 2979 2977 2974 2971 2968 2966 2963 2960 2958 2955 2952 2949 2946 2942 2938 2934 2931 2927 2923 2918 2913 2909 2906 2901 2898 2896 2893 2889
2991 2991 2991 2991 2990 2990 2989 2988 2987 2985 2983 2982 2979 2977 2974 2971 2968 2966 2963 2960 2958 2955 2952 2949 2946 2943 2940 2936 2932 2928 2924 2919 2915 2910 2905 2901 2897 2893 2889 2886 2883 2880
2986 2986 2986 2985 2985 2985 2984 2983 2981 2980 2978 2977 2975 2972 2969 2966 2963 2960 2958 2955 2953 2950 2947 2944 2940 2937 2933 2929 2925 2921 2917 2913 2908 2903 2898 2894 2890 2886 2882 2878 2874 2871
2981 2981 2980 2980 2980 2979 2978 2977 2976 2975 2973 2971 2969 2967 2964 2961 2958 2955 2953 2950 2947 2944 2941 2938 2934 2930 2925 2921 2917 2914 2910 2906 2901 2896 2891 2887 2883 2879 2876 2871 2865 2862
2975 2975 2975 2974 2974 2973 2972 2972 2971 2969 2968 2966 2964 2962 2959 2956 2953 2950 2948 2945 2941 2938 2934 2931 2927 2922 2918 2913 2910 2906 2903 2899 2894 2889 2884 2880 2876 2873 2868 2863 2857 2852
2970 2970 2969 2969 2969 2968 2967 2967 2966 2964 2963 2961 2959 2956 2953 2951 2948 2945 2942 2939 2936 2932 2928 2924 2920 2915 2911 2906 2903 2899 2895 2892 2887 2882 2877 2872 2868 2864 2859 2854 2848 2843
2964 2964 2964 2963 2963 2963 2962 2962 2960 2959 2958 2956 2953 2951 2948 2946 2943 2940 2937 2933 2929 2926 2922 2917 2913 2908 2904 2899 2895 2891 2887 2884 2879 2874 2869 2864 2859 2854 2850 2845 2840 2835
2958 2958 2958 2958 2958 2957 2957 2956 2955 2954 2952 2950 2948 2946 2943 2941 2938 2935 2931 2928 2924 2920 2916 2911 2907 2902 2897 2892 2888 2884 2880 2876 2871 2866 2861 2856 2851 2846 2842 2837 2832 2827
2953 2952 2952 2952 2952 2952 2951 2951 2950 2949 2947 2945 2943 2941 2938 2935 2932 2929 2926 2922 2918 2914 2910 2905 2900 2895 2889 2885 2880 2876 2873 2868 2863 2858 2852 2848 2843 2839 2834 2828 2823 2818
2947 2947 2946 2946 2946 2946 2946 2945 2945 2943 2942 2940 2938 2936 2933 2930 2927 2923 2920 2916 2912 2908 2903 2898 2893 2888 2883 2878 2874 2869 2865 2859 2854 2849 2844 2839 2834 2830 2825 2819 2813 2808
2942 2941 2941 2941 2941 2941 2941 2940 2939 2938 2937 2936 2934 2931 2928 2925 2921 2918 2914 2910 2906 2901 2897 2892 2887 2882 2877 2872 2867 2862 2857 2851 2845 2839 2834 2830 2825 2820 2815 2809 2803 2798
2936 2936 2936 2936 2936 2936 2936 2935 2935 2934 2933 2931 2929 2926 2923 2920 2916 2912 2908 2904 2900 2895 2891 2886 2881 2876 2871 2866 2860 2855 2849 2844 2838 2833 2828 2823 2817 2813 2808 2801 2796 2790
2930 2930 2931 2931 2931 2931 2931 2931 2930 2929 2928 2927 2924 2921 2918 2915 2911 2907 2903 2899 2894 2890 2885 2880 2875 2870 2865 2860 2854 2849 2843 2838 2833 2828 2822 2816 2810 2804 2799 2794 2789 2783
2925 2925 2926 2926 2926 2926 2926 2926 2926 2925 2924 2922 2919 2916 2913 2909 2906 2902 2897 2893 2889 2884 2880 2875 2870 2865 2860 2854 2849 2843 2837 2831 2826 2821 2816 2809 2803 2797 2791 2786 2781 2776
2920 2920 2921 2921 2922 2922 2922 2921 2921 2920 2919 2916 2914 2911 2907 2904 2900 2896 2892 2887 2883 2879 2874 2870 2865 2860 2855 2849 2844 2838 2832 2826 2820 2814 2808 2802 2796 2790 2784 2779 2774 2769
2915 2915 2916 2917 2917 2917 2917 2917 2916 2915 2914 2911 2908 2906 2902 2899 2895 2891 2887 2882 2878 2873 2869 2864 2859 2854 2850 2845 2839 2834 2827 2821 2814 2808 2802 2796 2790 2784 2778 2772 2767 2763
2910 2911 2912 2913 2913 2913 2912 2912 2912 2910 2909 2906 2903 2900 2897 2894 2890 2886 2881 2877 2872 2868 2864 2859 2854 2849 2845 2841 2836 2830 2823 2816 2809 2802 2796 2790 2783 2778 2772 2766 2761 2756
2906 2907 2908 2908 2908 2908 2908 2908 2907 2906 2904 2901 2898 2896 2892 2889 2885 2881 2876 2872 2868 2863 2859 2854 2849 2844 2840 2836 2830 2824 2817 2810 2803 2796 2789 2783 2776 2770 2765 2760 2755 2750
2902 2903 2903 2904 2904 2904 2903 2903 2902 2901 2899 2896 2894 2891 2887 2884 2880 2876 2871 2867 2863 2858 2853 2849 2845 2840 2835 2831 2825 2818 2811 2804 2796 2790 2784 2777 2770 2764 2758 2753 2748 2744
2898 2898 2899 2899 2899 2899 2899 2899 2897 2896 2894 2891 2889 2886 2883 2879 2875 2871 2867 2863 2858 2853 2848 2844 2841 2836 2830 2825 2819 2812 2804 2797 2790 2784 2778 2771 2764 2758 2752 2746 2740 2736
2893 2894 2894 2894 2894 2894 2894 2894 2893 2891 2889 2887 2884 2881 2878 2875 2871 2867 2863 2858 2854 2849 2844 2840 2836 2832 2826 2819 2812 2805 2797 2791 2784 2778 2773 2766 2758 2751 2745 2740 2734 2729
2888 2889 2889 2889 2890 2890 2890 2889 2888 2887 2885 2882 2880 2877 2873 2870 2866 2862 2858 2853 2849 2845 2841 2836 2831 2826 2820 2813 2806 2800 2793 2787 2780 2773 2767 2760 2752 2744 2738 2733 2728 2723